SV7JLF-3 Weather Reports


Display with metric or nautical units.
time (UTC)temp
F
wind
direction
speed
MPH
gust
MPH
rain 1hr
in
rain 24hr
in
rain mn
in
humidity
%
barometer
mb
20260507151655 71 326 1.0 0.0 0.00 0.00 0.00 65 1017.7
20260507151533 72 319 1.0 0.0 0.00 0.00 0.00 65 1017.7
20260507151024 71 236 0.0 0.0 0.00 0.00 0.00 67 1017.7
20260507150950 71 236 1.0 2.0 0.00 0.00 0.00 66 1017.5
20260507150520 71 236 0.0 0.0 0.00 0.00 0.00 66 1017.7
20260507150144 70 236 0.0 0.0 0.00 0.00 0.00 67 1017.7
20260507150015 70 236 0.0 0.0 0.00 0.00 0.00 67 1017.9
20260507145949 70 236 0.0 1.0 0.00 0.00 0.00 67 1017.6
20260507145509 70 236 0.0 0.0 0.00 0.00 0.00 69 1017.8
20260507145032 69 236 1.0 0.0 0.00 0.00 0.00 70 1018.0
20260507144516 69 236 1.0 0.0 0.00 0.00 0.00 71 1017.9
20260507144051 69 236 1.0 0.0 0.00 0.00 0.00 72 1017.8
20260507143534 69 236 4.0 0.0 0.00 0.00 0.00 71 1017.9
20260507143049 68 244 5.0 0.0 0.00 0.00 0.00 70 1017.9
20260507143022 69 236 5.0 0.0 0.00 0.00 0.00 69 1018.0
20260507142951 69 242 6.0 8.0 0.00 0.00 0.00 69 1017.5
20260507142513 69 242 5.0 0.0 0.00 0.00 0.00 70 1017.8
20260507142046 69 232 4.0 0.0 0.00 0.00 0.00 69 1017.8
20260507141636 69 225 3.0 0.0 0.00 0.00 0.00 69 1017.6
20260507141528 69 227 3.0 0.0 0.00 0.00 0.00 69 1017.6
20260507141013 69 234 2.0 0.0 0.00 0.00 0.00 69 1017.7
20260507140950 69 237 3.0 5.0 0.00 0.00 0.00 70 1017.4
20260507140525 70 231 2.0 0.0 0.00 0.00 0.00 70 1017.6
20260507140010 70 243 2.0 0.0 0.00 0.00 0.00 69 1017.8
20260507135951 69 243 2.0 3.0 0.00 0.00 0.00 70 1017.4
20260507135547 70 234 1.0 0.0 0.00 0.00 0.00 71 1017.7
20260507135031 69 257 1.0 0.0 0.00 0.00 0.00 71 1017.8
20260507134951 69 257 1.0 3.0 0.00 0.00 0.00 72 1017.5
20260507134604 69 259 1.0 0.0 0.00 0.00 0.00 71 1017.8
20260507134512 69 236 1.0 0.0 0.00 0.00 0.00 70 1017.8
20260507134014 69 280 1.0 0.0 0.00 0.00 0.00 70 1017.8
20260507133950 69 280 1.0 2.0 0.00 0.00 0.00 71 1017.5
20260507133531 68 280 1.0 0.0 0.00 0.00 0.00 72 1017.9
20260507133121 68 280 1.0 0.0 0.00 0.00 0.00 73 1017.9
20260507133045 68 280 1.0 0.0 0.00 0.00 0.00 73 1018.0
20260507132951 68 280 1.0 2.0 0.00 0.00 0.00 73 1017.6
20260507132524 68 280 0.0 0.0 0.00 0.00 0.00 73 1018.0
20260507132022 68 280 0.0 0.0 0.00 0.00 0.00 75 1018.0
20260507131951 68 280 0.0 1.0 0.00 0.00 0.00 75 1017.9
20260507131645 67 280 0.0 0.0 0.00 0.00 0.00 75 1018.0
20260507131515 67 280 0.0 0.0 0.00 0.00 0.00 75 1018.1
20260507131014 67 280 1.0 0.0 0.00 0.00 0.00 76 1018.2
20260507130534 68 280 1.0 0.0 0.00 0.00 0.00 77 1018.4
20260507130026 68 280 1.0 0.0 0.00 0.00 0.00 75 1018.7
20260507125515 68 280 2.0 0.0 0.00 0.00 0.00 76 1018.6
20260507125013 68 280 2.0 0.0 0.00 0.00 0.00 77 1018.9
20260507124537 68 288 2.0 0.0 0.00 0.00 0.00 76 1018.9
20260507124008 68 284 3.0 0.0 0.00 0.00 0.00 75 1019.1
20260507123952 68 284 2.0 6.0 0.00 0.00 0.00 75 1018.9
20260507123523 68 274 4.0 0.0 0.00 0.00 0.00 74 1019.2
20260507123011 68 276 4.0 0.0 0.00 0.00 0.00 73 1019.2
20260507122950 68 282 4.0 8.0 0.00 0.00 0.00 73 1018.9
20260507122532 68 263 4.0 0.0 0.00 0.00 0.00 72 1019.3
20260507122054 68 265 3.0 0.0 0.00 0.00 0.00 74 1019.4
20260507121951 68 261 3.0 3.0 0.00 0.00 0.00 73 1019.0
20260507121523 68 246 3.0 0.0 0.00 0.00 0.00 75 1019.4
20260507121028 68 246 3.0 0.0 0.00 0.00 0.00 74 1019.4
20260507120950 68 244 3.0 7.0 0.00 0.00 0.00 74 1019.1
20260507120520 68 245 3.0 0.0 0.00 0.00 0.00 73 1019.4
20260507120012 68 236 3.0 0.0 0.00 0.00 0.00 74 1019.4
20260507115951 68 234 3.0 5.0 0.00 0.00 0.00 74 1019.1
20260507115516 68 244 3.0 0.0 0.00 0.00 0.00 74 1019.3
20260507115039 68 257 3.0 0.0 0.00 0.00 0.00 74 1019.3
20260507114951 68 266 2.0 3.0 0.00 0.00 0.00 74 1019.0
20260507114525 68 278 3.0 0.0 0.00 0.00 0.00 74 1019.4
20260507114013 68 267 3.0 0.0 0.00 0.00 0.00 74 1019.4
20260507113524 68 249 3.0 0.0 0.00 0.00 0.00 75 1019.3
20260507113142 68 251 3.0 0.0 0.00 0.00 0.00 75 1019.3
20260507113014 68 255 3.0 0.0 0.00 0.00 0.00 75 1019.2
20260507112952 68 256 2.0 3.0 0.00 0.00 0.00 75 1019.0
20260507112512 68 258 3.0 0.0 0.00 0.00 0.00 73 1019.2
20260507112027 69 259 3.0 0.0 0.00 0.00 0.00 73 1019.4
20260507111951 69 259 2.0 7.0 0.00 0.00 0.00 73 1018.9
20260507111647 69 259 4.0 0.0 0.00 0.00 0.00 71 1019.3
20260507111523 69 264 4.0 0.0 0.00 0.00 0.00 70 1019.3
20260507111017 70 257 3.0 0.0 0.00 0.00 0.00 66 1019.3
20260507110513 70 267 3.0 0.0 0.00 0.00 0.00 65 1019.3
20260507110027 70 259 3.0 0.0 0.00 0.00 0.00 65 1019.2
20260507105951 70 259 3.0 7.0 0.00 0.01 0.00 64 1018.8
20260507105518 70 252 4.0 0.0 0.00 0.00 0.00 64 1019.1
20260507105030 70 246 4.0 0.0 0.00 0.00 0.00 64 1019.2
20260507104951 70 264 3.0 7.0 0.00 0.01 0.00 64 1018.9
20260507104559 69 272 4.0 0.0 0.00 0.00 0.00 65 1019.1
20260507104538 70 271 4.0 0.0 0.00 0.00 0.00 65 1019.1
20260507104021 70 252 4.0 0.0 0.00 0.00 0.00 64 1019.0
20260507103537 70 255 3.0 0.0 0.00 0.00 0.00 64 1018.9
20260507103119 69 258 4.0 0.0 0.00 0.00 0.00 64 1018.9
20260507103014 70 266 4.0 0.0 0.00 0.00 0.00 64 1018.8
20260507102952 70 264 3.0 7.0 0.00 0.01 0.00 63 1018.6
20260507102524 70 302 4.0 0.0 0.00 0.00 0.00 65 1018.8
20260507102023 70 257 4.0 0.0 0.00 0.00 0.00 64 1018.9
20260507101951 70 253 4.0 7.0 0.00 0.01 0.00 63 1018.6
20260507101621 69 263 4.0 0.0 0.00 0.00 0.00 63 1018.7
20260507101519 70 264 4.0 0.0 0.00 0.00 0.00 63 1018.8
20260507101025 70 246 4.0 0.0 0.00 0.00 0.00 62 1018.6
20260507100952 70 273 3.0 6.0 0.00 0.01 0.00 62 1018.3
20260507100523 70 273 4.0 0.0 0.00 0.00 0.00 62 1018.6
20260507100124 70 265 4.0 0.0 0.00 0.00 0.00 62 1018.6
20260507100033 70 263 4.0 0.0 0.00 0.00 0.00 62 1018.6
20260507095951 70 259 3.0 8.0 0.00 0.01 0.00 62 1018.4
20260507095528 71 262 4.0 0.0 0.00 0.00 0.00 61 1018.6
20260507095043 71 264 3.0 0.0 0.00 0.00 0.00 60 1018.6
20260507094951 71 257 4.0 6.0 0.00 0.01 0.00 60 1018.4
20260507094609 71 259 3.0 0.0 0.00 0.00 0.00 60 1018.5
20260507094517 72 253 3.0 0.0 0.00 0.00 0.00 60 1018.5
20260507094029 72 263 3.0 0.0 0.00 0.00 0.00 59 1018.4
20260507093951 72 267 3.0 3.0 0.00 0.01 0.00 60 1018.0
20260507093517 72 286 3.0 0.0 0.00 0.00 0.00 60 1018.4
20260507093108 72 254 2.0 0.0 0.00 0.00 0.00 60 1018.4
20260507093009 72 219 2.0 0.0 0.00 0.00 0.00 59 1018.4
20260507092952 72 219 2.0 3.0 0.00 0.01 0.00 59 1018.1
20260507092525 72 268 2.0 0.0 0.00 0.00 0.00 59 1018.4
20260507092011 72 267 2.0 0.0 0.00 0.00 0.00 60 1018.5
20260507091606 71 268 1.0 0.0 0.00 0.00 0.00 60 1018.4
20260507091524 72 277 1.0 0.0 0.00 0.00 0.00 59 1018.5
20260507091040 72 5 1.0 0.0 0.00 0.00 0.00 58 1018.4
20260507090951 72 7 0.0 3.0 0.00 0.01 0.00 58 1018.1
20260507090527 72 10 1.0 0.0 0.00 0.00 0.00 59 1018.4
20260507090045 71 36 1.0 0.0 0.00 0.00 0.00 60 1018.3
20260507090013 72 36 1.0 0.0 0.00 0.00 0.00 60 1018.3
20260507085951 71 36 1.0 3.0 0.00 0.01 0.00 58 1017.9
20260507085524 72 39 1.0 0.0 0.00 0.00 0.00 58 1018.2
20260507085018 71 40 1.0 0.0 0.00 0.00 0.00 60 1018.2
20260507084951 71 55 1.0 3.0 0.00 0.01 0.00 60 1017.7
20260507084542 71 61 2.0 0.0 0.00 0.00 0.00 58 1018.1
20260507084524 71 93 3.0 0.0 0.00 0.00 0.00 59 1018.0
20260507084019 71 65 4.0 0.0 0.00 0.00 0.00 58 1018.0
20260507083952 71 71 3.0 7.0 0.00 0.01 0.00 58 1017.5
20260507083535 71 78 2.0 0.0 0.00 0.00 0.00 58 1017.9
20260507083126 71 64 1.0 0.0 0.00 0.00 0.00 59 1017.9
20260507083045 71 40 1.0 0.0 0.00 0.00 0.00 58 1017.9
20260507082951 71 73 1.0 3.0 0.00 0.01 0.00 58 1017.6
20260507082514 71 51 3.0 0.0 0.00 0.00 0.00 57 1017.9
20260507082020 71 120 3.0 0.0 0.00 0.00 0.00 57 1017.9
20260507081951 71 107 3.0 8.0 0.00 0.01 0.00 57 1017.5
20260507081603 70 78 3.0 0.0 0.00 0.00 0.00 57 1017.9
20260507081513 71 69 3.0 0.0 0.00 0.00 0.00 57 1018.0
20260507081026 71 28 3.0 0.0 0.00 0.00 0.00 56 1017.8
20260507080952 71 49 3.0 7.0 0.00 0.01 0.00 56 1017.6
20260507080513 70 42 3.0 0.0 0.00 0.00 0.00 57 1017.9
20260507080026 70 83 2.0 0.0 0.00 0.00 0.00 57 1017.8
20260507075952 70 69 2.0 5.0 0.00 0.01 0.00 57 1017.6
20260507075518 69 67 2.0 0.0 0.00 0.00 0.00 60 1018.0
20260507075024 69 70 2.0 0.0 0.00 0.00 0.00 61 1017.9
20260507074951 69 53 3.0 5.0 0.00 0.01 0.00 61 1017.8
20260507074601 69 96 3.0 0.0 0.00 0.00 0.00 61 1017.8
20260507074537 69 96 2.0 0.0 0.00 0.00 0.00 61 1018.0
20260507074028 69 80 2.0 0.0 0.00 0.00 0.00 61 1017.9
20260507073517 68 13 1.0 0.0 0.00 0.00 0.00 63 1017.9
20260507073029 67 17 1.0 0.0 0.00 0.00 0.00 62 1017.9
20260507073006 67 30 1.0 0.0 0.00 0.00 0.00 62 1017.8
20260507072952 67 30 2.0 3.0 0.00 0.01 0.00 63 1017.5
20260507072537 67 64 1.0 0.0 0.00 0.00 0.00 63 1017.9
20260507072026 67 64 1.0 0.0 0.00 0.00 0.00 63 1017.9
20260507071616 66 41 2.0 0.0 0.00 0.00 0.00 63 1017.9
20260507071558 67 41 2.0 0.0 0.00 0.00 0.00 63 1018.0
20260506230058 50 186 4.0 0.0 0.00 0.00 0.00 81 1016.7
20260506230018 51 186 4.0 0.0 0.00 0.00 0.00 81 1016.8
20260506225952 51 185 5.0 5.0 0.00 0.01 0.00 81 1016.4
20260506225534 51 186 3.0 0.0 0.00 0.00 0.00 81 1016.8
20260506225032 51 182 3.0 0.0 0.00 0.00 0.00 80 1016.9
20260506224605 51 182 3.0 0.0 0.00 0.00 0.00 81 1016.8
20260506224045 51 184 3.0 0.0 0.00 0.00 0.00 80 1016.9
20260506223110 51 185 3.0 0.0 0.00 0.00 0.00 80 1016.8
20260506223013 52 185 3.0 0.0 0.00 0.00 0.00 80 1016.8
20260506222953 52 185 3.0 5.0 0.00 0.01 0.00 80 1016.4
20260506222532 52 186 3.0 0.0 0.00 0.00 0.00 80 1016.6
20260506222023 52 189 2.0 0.0 0.00 0.00 0.00 80 1016.6
20260506221615 52 189 3.0 0.0 0.00 0.00 0.00 79 1016.7
20260506221522 52 189 3.0 0.0 0.00 0.00 0.00 79 1016.8
20260506221014 53 190 3.0 0.0 0.00 0.00 0.00 79 1016.9
20260506220953 53 190 3.0 5.0 0.00 0.01 0.00 79 1016.4
20260506220514 53 189 3.0 0.0 0.00 0.00 0.00 79 1016.7
20260506220033 53 185 3.0 0.0 0.00 0.00 0.00 78 1016.6
20260506220004 52 182 3.0 0.0 0.00 0.00 0.00 78 1016.5
20260506215953 53 180 3.0 5.0 0.00 0.01 0.00 78 1016.3
20260506215526 53 176 3.0 0.0 0.00 0.00 0.00 78 1016.5
20260506215022 53 177 3.0 0.0 0.00 0.00 0.00 78 1016.6
20260506214952 53 179 2.0 3.0 0.00 0.01 0.00 78 1016.2
20260506214539 53 197 3.0 0.0 0.00 0.00 0.00 78 1016.6
20260506214513 54 198 3.0 0.0 0.00 0.00 0.00 78 1016.6
20260506214009 54 206 3.0 0.0 0.00 0.00 0.00 77 1016.6
20260506213953 54 206 2.0 3.0 0.00 0.01 0.00 77 1016.2
20260506213529 54 206 3.0 0.0 0.00 0.00 0.00 77 1016.7
20260506213154 54 206 3.0 0.0 0.00 0.00 0.00 77 1016.6
20260506213108 54 206 3.0 0.0 0.00 0.00 0.00 77 1016.7
20260506212953 54 206 4.0 5.0 0.00 0.01 0.00 77 1016.3
20260506212513 54 200 2.0 0.0 0.00 0.00 0.00 76 1016.5
20260506212012 54 200 2.0 0.0 0.00 0.00 0.00 76 1016.6
20260506211953 54 200 2.0 3.0 0.00 0.01 0.00 76 1016.2
20260506211621 54 200 2.0 0.0 0.00 0.00 0.00 76 1016.4
20260506211528 55 200 2.0 0.0 0.00 0.00 0.00 76 1016.5
20260506211019 55 200 2.0 0.0 0.00 0.00 0.00 77 1016.5
20260506210953 55 200 2.0 3.0 0.00 0.01 0.00 77 1016.2
20260506210517 55 204 3.0 0.0 0.00 0.00 0.00 77 1016.5
20260506210031 56 225 3.0 0.0 0.00 0.00 0.01 77 1016.5
20260506210005 55 228 3.0 0.0 0.00 0.00 0.01 77 1016.3
20260506205953 56 229 3.0 3.0 0.00 0.01 0.00 77 1016.2
20260506205523 56 229 2.0 0.0 0.00 0.00 0.01 77 1016.5
20260506205042 56 242 2.0 0.0 0.00 0.00 0.01 78 1016.5
20260506204624 56 242 1.0 0.0 0.00 0.00 0.01 78 1016.5
20260506204520 56 242 2.0 0.0 0.00 0.00 0.01 78 1016.4
20260506204013 57 243 2.0 0.0 0.00 0.00 0.01 79 1016.6
20260506203952 57 243 1.0 3.0 0.00 0.01 0.01 79 1016.2
20260506203512 57 238 2.0 0.0 0.00 0.00 0.01 79 1016.6
20260506203029 57 238 2.0 0.0 0.00 0.00 0.01 79 1016.5
20260506203014 56 238 2.0 0.0 0.00 0.00 0.01 79 1016.5
20260506202952 57 238 2.0 3.0 0.00 0.01 0.01 79 1016.2
20260506202542 57 238 2.0 0.0 0.00 0.00 0.01 80 1016.5
20260506202018 57 238 2.0 0.0 0.00 0.00 0.01 80 1016.6
20260506201952 57 238 2.0 3.0 0.00 0.01 0.01 80 1016.2
20260506201630 57 238 2.0 0.0 0.00 0.00 0.01 80 1016.5
20260506201533 58 238 1.0 0.0 0.00 0.00 0.01 80 1016.4
20260506201030 58 238 1.0 0.0 0.00 0.00 0.01 79 1016.3
20260506200953 58 238 2.0 3.0 0.00 0.01 0.01 79 1016.0
20260506200523 58 238 1.0 0.0 0.00 0.00 0.01 80 1016.3
20260506200124 58 238 1.0 0.0 0.00 0.00 0.01 81 1016.3
20260506200019 58 238 1.0 0.0 0.00 0.00 0.01 81 1016.3
20260506195952 58 252 1.0 3.0 0.00 0.01 0.01 81 1016.0
20260506195510 58 261 0.0 0.0 0.00 0.00 0.01 81 1016.2
20260506195030 58 261 0.0 0.0 0.00 0.00 0.01 81 1016.3
20260506194953 58 261 0.0 1.0 0.00 0.01 0.01 81 1016.0
20260506194618 58 261 0.0 0.0 0.00 0.00 0.01 81 1016.3
20260506194508 59 261 0.0 0.0 0.00 0.00 0.01 81 1016.3
20260506194020 59 261 1.0 0.0 0.00 0.00 0.01 81 1016.1
20260506193952 59 261 0.0 3.0 0.00 0.01 0.01 81 1016.0
20260506193522 59 261 1.0 0.0 0.00 0.00 0.01 81 1016.3
20260506193029 58 261 1.0 0.0 0.00 0.00 0.01 81 1016.0
20260506193011 59 261 2.0 0.0 0.00 0.00 0.01 81 1016.1
20260506192527 59 261 2.0 0.0 0.00 0.00 0.01 80 1016.1
20260506192043 59 261 3.0 0.0 0.00 0.00 0.01 81 1016.0
20260506191953 59 261 3.0 3.0 0.00 0.01 0.01 80 1015.6
20260506191621 59 273 4.0 0.0 0.00 0.00 0.01 80 1015.9
20260506191520 59 273 4.0 0.0 0.00 0.00 0.01 80 1015.9
20260506191010 60 284 2.0 0.0 0.00 0.00 0.01 80 1015.9
20260506190508 60 265 2.0 0.0 0.00 0.00 0.01 79 1015.9
20260506190026 60 264 2.0 0.0 0.00 0.00 0.01 78 1015.7
20260506190007 60 264 3.0 0.0 0.00 0.00 0.01 78 1015.7
20260506185953 60 264 2.0 3.0 0.00 0.01 0.01 78 1015.3
20260506185537 61 266 3.0 0.0 0.00 0.00 0.01 77 1015.7
20260506185013 61 288 2.0 0.0 0.00 0.00 0.01 77 1015.5
20260506184954 61 288 2.0 3.0 0.00 0.01 0.01 77 1015.3
20260506184623 61 287 3.0 0.0 0.00 0.00 0.01 76 1015.7
20260506184532 61 278 3.0 0.0 0.00 0.00 0.01 76 1015.7
20260506184024 62 269 5.0 0.0 0.00 0.00 0.01 75 1015.7
20260506183954 62 274 5.0 7.0 0.00 0.01 0.01 75 1015.1
20260506183524 62 270 4.0 0.0 0.00 0.00 0.01 74 1015.6
20260506183041 62 281 4.0 0.0 0.00 0.00 0.01 73 1015.5
20260506183017 63 299 4.0 0.0 0.00 0.00 0.01 73 1015.5
20260506182515 64 314 6.0 0.0 0.00 0.00 0.01 72 1015.4
20260506182032 64 281 7.0 0.0 0.00 0.00 0.01 71 1015.2
20260506181601 65 285 6.0 0.0 0.00 0.00 0.01 69 1014.8
20260506181523 65 294 6.0 0.0 0.00 0.00 0.01 69 1015.1
20260506181022 66 277 5.0 0.0 0.00 0.00 0.01 66 1014.9
20260506180953 66 279 5.0 8.0 0.00 0.01 0.01 66 1014.5
20260506180514 67 271 5.0 0.0 0.00 0.00 0.01 64 1014.9
20260506180118 68 269 6.0 0.0 0.00 0.00 0.01 62 1014.6
20260506180013 69 269 5.0 0.0 0.00 0.00 0.01 61 1014.8
20260506175953 69 271 6.0 8.0 0.00 0.01 0.01 61 1014.4
20260506175531 70 265 4.0 0.0 0.00 0.00 0.01 58 1014.6
20260506175022 71 262 2.0 0.0 0.00 0.00 0.01 53 1014.6
20260506174953 71 262 3.0 7.0 0.00 0.01 0.01 52 1014.3
20260506174615 71 263 2.0 0.0 0.00 0.00 0.01 48 1014.7
20260506174521 71 263 2.0 0.0 0.00 0.00 0.01 48 1014.6
20260506174016 72 323 1.0 0.0 0.00 0.00 0.01 48 1014.6
20260506173953 72 323 1.0 3.0 0.00 0.01 0.01 50 1014.2
20260506173520 73 321 2.0 0.0 0.00 0.00 0.01 49 1014.5
20260506173044 73 36 2.0 0.0 0.00 0.00 0.01 49 1014.4
20260506173013 73 36 2.0 0.0 0.00 0.00 0.01 49 1014.4
20260506172953 73 36 2.0 3.0 0.00 0.01 0.01 48 1014.0
20260506172514 74 36 1.0 0.0 0.00 0.00 0.01 49 1014.3
20260506172008 75 42 2.0 0.0 0.00 0.00 0.01 45 1014.2
20260506171954 75 46 1.0 6.0 0.00 0.01 0.01 46 1013.8
20260506171602 74 21 3.0 0.0 0.00 0.00 0.01 39 1014.1
20260506171526 75 21 3.0 0.0 0.00 0.00 0.01 38 1014.0
20260506171048 75 209 4.0 0.0 0.00 0.00 0.01 39 1014.2
20260506170528 76 249 6.0 0.0 0.00 0.00 0.01 37 1014.0
20260506170110 75 234 7.0 0.0 0.00 0.00 0.01 36 1013.8
20260506170039 76 227 7.0 0.0 0.00 0.00 0.01 36 1013.9
20260506165953 76 225 7.0 12.0 0.00 0.01 0.01 35 1013.6
20260506165518 76 204 6.0 0.0 0.00 0.00 0.01 37 1013.9
20260506165011 77 227 6.0 0.0 0.00 0.00 0.01 35 1013.9
20260506164954 77 223 7.0 13.0 0.00 0.01 0.01 36 1013.5
20260506164603 77 221 6.0 0.0 0.00 0.00 0.01 37 1013.9
20260506164511 77 217 6.0 0.0 0.00 0.00 0.01 36 1014.0
20260506164031 78 223 7.0 0.0 0.00 0.00 0.01 35 1013.9
20260506163524 78 225 7.0 0.0 0.00 0.00 0.01 33 1013.9
20260506163124 78 221 7.0 0.0 0.00 0.00 0.01 36 1013.9
20260506163023 78 223 7.0 0.0 0.00 0.00 0.01 35 1013.9
20260506162953 78 215 6.0 12.0 0.00 0.01 0.01 35 1013.6
20260506162518 79 228 8.0 0.0 0.00 0.00 0.01 35 1013.7
20260506162018 79 201 8.0 0.0 0.00 0.00 0.01 34 1013.7
20260506161953 79 209 8.0 14.0 0.00 0.01 0.01 34 1013.4
20260506161541 79 206 8.0 0.0 0.00 0.00 0.01 34 1013.8
20260506161511 79 207 8.0 0.0 0.00 0.00 0.01 34 1013.8
20260506161012 79 194 8.0 0.0 0.00 0.00 0.01 34 1013.8
20260506160953 79 202 9.0 13.0 0.00 0.01 0.01 35 1013.5
20260506160533 80 209 8.0 0.0 0.00 0.00 0.01 36 1013.8
20260506160117 79 211 8.0 0.0 0.00 0.00 0.01 35 1013.9
20260506160024 80 209 8.0 0.0 0.00 0.00 0.01 35 1013.8
20260506155953 80 199 9.0 13.0 0.00 0.01 0.01 35 1013.6
20260506155526 80 203 8.0 0.0 0.00 0.00 0.01 34 1014.0
20260506155021 80 198 7.0 0.0 0.00 0.00 0.01 36 1013.8
20260506154954 80 205 6.0 13.0 0.00 0.01 0.01 36 1013.4
20260506154522 80 199 8.0 0.0 0.00 0.00 0.01 35 1013.8
20260506154510 80 209 8.0 0.0 0.00 0.00 0.01 35 1013.7
20260506154015 81 199 9.0 0.0 0.00 0.00 0.01 36 1014.0
20260506153954 81 200 9.0 14.0 0.00 0.01 0.01 35 1013.5
20260506153518 81 198 8.0 0.0 0.00 0.00 0.01 34 1013.8
20260506153050 81 215 8.0 0.0 0.00 0.00 0.01 36 1013.9
20260506153010 81 200 8.0 0.0 0.00 0.00 0.01 35 1013.8
20260506152953 81 205 9.0 14.0 0.00 0.01 0.01 36 1013.4
20260506152511 81 192 8.0 0.0 0.00 0.00 0.01 36 1013.9
20260506152051 82 220 8.0 0.0 0.00 0.00 0.01 37 1013.8
20260506151954 82 224 9.0 13.0 0.00 0.01 0.01 36 1013.3